This demonstration page uses our WeatherBlox Daily Observations layout. Learn more.

Left ArrowRight Arrow

40.97296, -117.73568

Hourly Observations for May 3, 2022

Temp ( °F °C ) Dew Point ( °F °C ) Humidity (%) Winds ( mph kmh ) Pressure ( in mb ) Visibility ( mi km ) Precip ( " mm )
12:56 am 00:56 Cloudy with Light Rain 40 4.4 29 -1.7 65 65 N 7 11 30.04 1017 9 14 0.00 0.00
1:56 am 01:56 Cloudy 36 2.2 30 -1.1 79 79 WSW 7 11 30.02 1017 10 16 0.00 0.00
2:56 am 02:56 Mostly Cloudy 34 1.1 29 -1.7 82 82 S 5 7 30.04 1017 10 16 0.00 0.00
3:56 am 03:56 Clear 32 0 27 -2.8 82 82 S 5 7 30.04 1017 10 16 0.00 0.00
4:56 am 04:56 Clear 31 -0.6 26 -3.3 82 82 Calm 30.06 1018 10 16 0.00 0.00
5:56 am 05:56 Mostly Cloudy 29 -1.7 24 -4.4 82 82 Calm 30.06 1018 10 16 0.00 0.00
6:56 am 06:56 Cloudy 33 0.6 28 -2.2 82 82 SSW 9 15 30.06 1018 10 16 0.00 0.00
7:56 am 07:56 Cloudy 36 2.2 29 -1.7 76 76 S 9 15 30.10 1019 10 16 0.00 0.00
8:56 am 08:56 Cloudy 41 5 27 -2.8 57 57 S 6 9 30.11 1020 10 16 0.00 0.00
9:56 am 09:56 Cloudy 45 7.2 27 -2.8 49 49 SW 9 15 30.10 1019 10 16 0.00 0.00
10:56 am 10:56 Cloudy 48 8.9 28 -2.2 46 46 undefined N/A 30.10 1019 10 16 0.00 0.00
11:56 am 11:56 Sunny 52 11.1 30 -1.1 43 43 SSE 7 11 30.09 1019 10 16 0.00 0.00
12:56 pm 12:56 Cloudy 55 12.8 30 -1.1 38 38 VRB 5 7 30.09 1019 10 16 0.00 0.00
1:56 pm 13:56 Mostly Cloudy 55 12.8 30 -1.1 38 38 VRB 7 11 30.09 1019 10 16 0.00 0.00
2:56 pm 14:56 Cloudy 59 15 31 -0.6 35 35 N 14 22 30.08 1019 10 16 0.00 0.00
3:56 pm 15:56 Mostly Cloudy 60 15.6 31 -0.6 33 33 N 10 17 30.07 1018 10 16 0.00 0.00
4:56 pm 16:56 Mostly Sunny 62 16.7 30 -1.1 30 30 N 13 20 30.07 1018 10 16 0.00 0.00
5:56 pm 17:56 Sunny 62 16.7 30 -1.1 30 30 NNW 10 17 30.07 1018 10 16 0.00 0.00
6:56 pm 18:56 Sunny 61 16.1 30 -1.1 31 31 N 10 17 30.06 1018 10 16 0.00 0.00
7:56 pm 19:56 Clear 55 12.8 31 -0.6 40 40 N 7 11 30.08 1019 10 16 0.00 0.00
8:56 pm 20:56 Clear 42 5.6 29 -1.7 60 60 SSW 3 6 30.11 1020 10 16 0.00 0.00
9:56 pm 21:56 Clear 41 5 28 -2.2 60 60 NW 5 7 30.13 1020 10 16 0.00 0.00
10:56 pm 22:56 Clear 36 2.2 27 -2.8 70 70 S 3 6 30.13 1020 10 16 0.00 0.00
11:56 pm 23:56 Clear 34 1.1 27 -2.8 76 76 SE 8 13 30.13 1020 10 16 0.00 0.00

Powered by AerisWeather